World > North America > United States > New York

Hourly Whites Store, NY Regional Weather

Feedback E-mail the Weather

Latest News

Whites Store, NY Weather Maps

°F °C°F °C
Whites Store Weather Map
UTC Time: 5/27/2022, 22:01
Your Time:

Whites Store, NY Regional Weather

Expires:202205272200;;666749
ASUS41 KBGM 272110
RWRBGM

REGIONAL WEATHER ROUNDUP
NATIONAL WEATHER SERVICE BINGHAMTON NY
500 PM EDT FRI MAY 27 2022

Note: "fair" indicates few or no clouds below 12,000 feet with no
significant weather and/or obstructions to visibility.

* = Station(s) that does not report precipitation, such as rain, 
snow, etc, also no thunder or fog.


NYZ009-015>018-022>025-036-037-044>046-055>057-062-272200
...Central New York...
  
CITY           SKY/WX    TMP DP  RH WIND       PRES   REMARKS
Binghamton     CLOUDY    66  64  93 S10       29.72F                  
Cortland       CLOUDY    68  63  83 S9        29.71R                  
Dansville      CLOUDY    72  64  76 N6        29.70F                  
Elmira         CLOUDY    73  65  75 W9        29.68S                  
Ithaca         CLOUDY    69  66  90 S12G18    29.69F                  
Hamilton       CLOUDY    70  61  73 S8G20     29.71S                  
Monticello     LGT RAIN  67  66  97 SE13      29.82F                  
Norwich        CLOUDY    68  64  88 S16       29.74S                  
Oneonta        RAIN      66  64  94 S3        29.75F                  
Penn Yan       CLOUDY    67  64  90 W3        29.69F                  
Rome           CLOUDY    74  67  78 CALM      29.69F                  
Seneca Falls   RAIN      64  64 100 NW6       29.68F                  
Sidney         MOSUNNY   68  64  88 S9G17     29.73F                  
Skaneateles    MOCLDY    68  68 100 VRB5      29.68F FOG              
Syracuse       LGT RAIN  69  67  93 NE6       29.67F                  
$$
 

SKY/WX - Weather  TMP - Temperature  DP - Dew Point  RH - Humidity
WIND - Wind Direction/Speed PRES - Barometric Pressure VSB - Visibility
WCI - Wind Chill Index E13G22 Wind - East Wind 13 mph/Gusts of 22 mph

Trending Headlines

Whites Store Radar Loop



Whites Store Quick Facts


National Two Day Weather Forecast


E-mail the Whites Store Weather Forecast

Voice your opinion or tell us about page issues...